Regional Weather Roundup
Issued by NWS Boston, MA

Current Version | Previous Version | Text Only | Print | Product List | Glossary Off
Versions: 1 2 3 4 5 6 7 8 9 10 11 12 13 14 15 16 17 18 19 20 21 22 23 24 25 26 27 28 29 30 31 32 33 34 35 36 37 38 39 40 41 42 43 44 45 46 47 48 49 50
000 ASUS41 KBOX 240410 RWRBOX REGIONAL WEATHER ROUNDUP NATIONAL WEATHER SERVICE TAUNTON MA 1200 AM EDT TUE OCT 24 2017 NOTE: "FAIR" INDICATES FEW OR NO CLOUDS BELOW 12,000 FEET WITH NO SIGNIFICANT WEATHER AND/OR OBSTRUCTIONS TO VISIBILITY. MAZALL-240500- EASTERN MASSACHUSETTS CITY SKY/WX TMP DP RH WIND PRES REMARKS BOSTON PTCLDY 61 60 97 SE5 30.14F BEVERLY MOCLDY 62 61 96 SE8 30.14F LAWRENCE CLOUDY 64 60 87 CALM 30.16F BEDFORD CLOUDY 63 59 87 E3 30.12F BLUE HILL N/A 64 61 90 S15G22 30.13F NORWOOD PTCLDY 68 64 87 S6 30.13F MARSHFIELD CLOUDY 68 63 83 S7G14 30.14F PLYMOUTH CLOUDY 68 60 75 VRB7 30.15F TAUNTON PTCLDY 68 61 78 S5 30.14F NEW BEDFORD MOCLDY 66 62 87 S13G22 30.13F $$ MAZALL-240500- CAPE COD AND THE ISLANDS CITY SKY/WX TMP DP RH WIND PRES REMARKS FALMOUTH MOCLDY 66 63 88 S15 30.17F HYANNIS CLOUDY 66 62 87 VRB7G16 30.15F CHATHAM CLOUDY 63 61 93 S9G16 30.19F PROVINCETOWN MOCLDY 66 60 81 S14G20 30.17F NANTUCKET CLOUDY 63 62 97 SE15 30.17F MARTHAS VNYRD CLOUDY 65 62 90 SE14 30.15F $$ MAZALL-240500- CENTRAL AND WESTERN MASSACHUSETTS CITY SKY/WX TMP DP RH WIND PRES REMARKS WORCESTER LGT RAIN 62 60 93 SE7 30.12F FITCHBURG CLOUDY 62 60 93 CALM 30.13F ORANGE CLOUDY 63 62 97 S3 30.09F SPRINGFIELD CLOUDY 67 62 84 SE8 30.06F WESTFIELD CLOUDY 64 63 96 CALM 30.06F NORTH ADAMS CLOUDY 66 59 78 E8 30.03F PITTSFIELD CLOUDY 65 59 81 SE7G21 30.03F $$ RIZALL-240500- RHODE ISLAND CITY SKY/WX TMP DP RH WIND PRES REMARKS PROVIDENCE CLOUDY 67 64 90 S15 30.14F NEWPORT CLOUDY 66 64 93 SE10 30.13F BLOCK ISLAND MOCLDY 65 63 93 SE16 30.12F SMITHFIELD CLOUDY 64 63 94 VRB6 30.13F WESTERLY CLOUDY 67 64 90 SE10 30.12F $$ CTZALL-240500- CONNECTICUT CITY SKY/WX TMP DP RH WIND PRES REMARKS BRADLEY INTL CLOUDY 66 63 90 SE7 30.06F HARTFORD CLOUDY 68 64 87 S9 30.06F BRIDGEPORT CLOUDY 70 64 81 SE15G21 30.03F DANBURY CLOUDY 68 64 87 SE9 30.03F GROTON CLOUDY 67 64 90 SE17 30.08F NEW HAVEN CLOUDY 69 64 84 SE14 30.06F CHESTER MOCLDY 66 64 94 SE7 30.09F MERIDEN CLOUDY 67 63 87 SE7 30.06F WILLIMANTIC CLOUDY 68 65 90 S7 30.10F OXFORD LGT RAIN 65 64 97 SE13 30.06F $$ MEZ002-015-021-024-NHZ003-005-008-011-012-014-VTZ005-008-240500- NORTHERN NEW ENGLAND CITY SKY/WX TMP DP RH WIND PRES REMARKS PORTLAND ME FOG 56 56 100 SE12 30.17F VSB 1/4 BANGOR ME CLOUDY 56 55 97 S7 30.20F FOG CONCORD NH CLOUDY 59 57 93 E3 30.14F FOG MANCHESTER NH CLOUDY 62 60 93 SE5 30.12F NASHUA NH NOT AVBL PORTSMOUTH NH FOG 58 58 100 CALM 30.14F VSB 1/8 JAFFREY NH MOCLDY 63 61 93 S5 30.12F KEENE NH CLOUDY 64 60 87 S5 30.09F BURLINGTON VT PTCLDY 64 55 72 SE8 29.97F MT. WASHINGTON DRZL/FOG 45 45 100 S44G58 N/A VSB 0 $$ NYZ052-076-240500- EASTERN NEW YORK CITY SKY/WX TMP DP RH WIND PRES REMARKS ALBANY CLOUDY 69 59 70 SE9G16 29.97F NEW YORK CITY CLOUDY 70 65 84 SE18G29 29.98F $$ ANZALL-240500- MARINE OBSERVATIONS STATION/POSITION TIME TEMP WIND PRES VSBY WAVE AIR SEA DIR/SP/G HT/PER (UTC) (F) (DEG/KT/KT) (MB) (MI) (FT/S) BOSTON BUOY 0350 62 59 150/ 10/ 12 1020.6F 1/ 8 BUZZARDS BAY 0300 65 150/ 17/ 19 1021.4F NANTUCKET SOUND 0350 65 63 150/ 16/ 19 1021.2F 2/ 4 MASS BAY-STELLWA 0304 61 59 140/ 8/ 10 1020.8F 1/ 8 ISLE OF SHOALS 0300 60 160/ 10/ 11 1021.4F S OF BLOCK IS NOT AVBL $$ ......................KEY......................... SKY/WX - SKY CONDITION/PRESENT WEATHER TMP - TEMPERATURE IN FAHRENHEIT DWPT - DEWPOINT IN FAHRENHEIT RH - RELATIVE HUMIDITY IN PERCENT WIND - DIRECTION AND SPEED IN MPH PRES - MEAN SEA LEVEL PRESSURE IN INCHES OF HG WCI - WIND CHILL INDEX VSB - VISIBILITY IN MILES HX - HEAT INDEX TC - TEMPERATURE IN CELSIUS VRB - VARIABLE WIND DIRECTION N/A - NOT AVAILABLE

USA.gov is the U.S. government's official web portal to all federal, state and local government web resources and services.